Time,TemperatureF,DewpointF,PressureIn,WindDirection,WindDirectionDegrees,WindSpeedMPH,WindSpeedGustMPH,Humidity,HourlyPrecipIn,Conditions,Clouds,dailyrainin,SoftwareType,DateUTC
2013-07-13 00:00:00,56.3,53.4,29.91,South,170,1.2,1.2,90,0.00,CLR,,0.00,WeatherDisplay:10.37,2013-07-13 07:00:00,
2013-07-13 00:05:00,56.2,53.3,29.91,SSE,164,2.3,2.3,90,0.00,CLR,,0.00,WeatherDisplay:10.37,2013-07-13 07:05:00,
2013-07-13 00:10:00,56.1,53.2,29.90,SSE,152,1.2,1.2,90,0.00,CLR,,0.00,WeatherDisplay:10.37,2013-07-13 07:10:00,
2013-07-13 00:15:00,56.1,53.2,29.90,South,181,2.3,2.3,90,0.00,CLR,,0.00,WeatherDisplay:10.37,2013-07-13 07:15:00,
2013-07-13 00:20:00,56.0,53.1,29.90,South,170,0.0,0.0,90,0.00,CLR,,0.00,WeatherDisplay:10.37,2013-07-13 07:20:00,
2013-07-13 00:25:00,55.9,53.0,29.90,South,170,0.0,0.0,90,0.00,CLR,,0.00,WeatherDisplay:10.37,2013-07-13 07:25:00,
2013-07-13 00:30:00,55.8,52.9,29.90,South,170,0.0,0.0,90,0.00,CLR,,0.00,WeatherDisplay:10.37,2013-07-13 07:30:00,
2013-07-13 00:35:00,55.7,52.8,29.90,South,173,1.2,1.2,90,0.00,CLR,,0.00,WeatherDisplay:10.37,2013-07-13 07:35:00,
2013-07-13 00:40:00,55.6,52.7,29.90,South,173,0.0,0.0,90,0.00,CLR,,0.00,WeatherDisplay:10.37,2013-07-13 07:40:00,
2013-07-13 00:45:00,55.5,52.6,29.90,South,173,0.0,0.0,90,0.00,CLR,,0.00,WeatherDisplay:10.37,2013-07-13 07:45:00,
2013-07-13 00:50:00,55.3,52.4,29.90,South,173,0.0,0.0,90,0.00,CLR,,0.00,WeatherDisplay:10.37,2013-07-13 07:50:00,
2013-07-13 00:55:00,54.9,52.0,29.90,South,173,0.0,0.0,90,0.00,CLR,,0.00,WeatherDisplay:10.37,2013-07-13 07:55:00,
2013-07-13 01:00:00,54.8,52.2,29.90,South,173,0.0,0.0,91,0.00,CLR,,0.00,WeatherDisplay:10.37,2013-07-13 08:00:00,
2013-07-13 01:05:00,54.7,52.1,29.90,South,173,0.0,0.0,91,0.00,CLR,,0.00,WeatherDisplay:10.37,2013-07-13 08:05:00,
2013-07-13 01:10:00,53.9,51.0,29.90,South,173,0.0,0.0,90,0.00,CLR,,0.00,WeatherDisplay:10.37,2013-07-13 08:10:00,
2013-07-13 01:15:00,53.5,50.6,29.90,South,173,0.0,0.0,90,0.00,CLR,,0.00,WeatherDisplay:10.37,2013-07-13 08:15:00,
2013-07-13 01:20:00,53.4,50.8,29.90,South,173,0.0,0.0,91,0.00,CLR,,0.00,WeatherDisplay:10.37,2013-07-13 08:20:00,
2013-07-13 01:25:00,53.1,50.5,29.90,South,173,0.0,0.0,91,0.00,CLR,,0.00,WeatherDisplay:10.37,2013-07-13 08:25:00,
2013-07-13 01:30:00,53.0,50.7,29.90,South,173,0.0,0.0,92,0.00,CLR,,0.00,WeatherDisplay:10.37,2013-07-13 08:30:00,
2013-07-13 01:35:00,53.2,50.9,29.90,South,173,1.2,1.2,92,0.00,CLR,,0.00,WeatherDisplay:10.37,2013-07-13 08:35:00,
2013-07-13 01:40:00,53.5,51.2,29.91,SSE,167,1.2,1.2,92,0.00,CLR,,0.00,WeatherDisplay:10.37,2013-07-13 08:40:00,
2013-07-13 01:45:00,53.7,51.4,29.91,WSW,239,1.2,1.2,92,0.00,CLR,,0.00,WeatherDisplay:10.37,2013-07-13 08:45:00,
2013-07-13 01:50:00,53.8,51.5,29.91,South,170,2.3,2.3,92,0.00,CLR,,0.00,WeatherDisplay:10.37,2013-07-13 08:50:00,
2013-07-13 01:55:00,53.8,51.5,29.91,South,170,0.0,0.0,92,0.00,CLR,,0.00,WeatherDisplay:10.37,2013-07-13 08:55:00,
2013-07-13 02:00:00,53.7,51.4,29.91,South,170,1.0,1.0,92,0.00,CLR,,0.00,WeatherDisplay:10.37,2013-07-13 09:00:00,
2013-07-13 02:05:00,53.6,51.3,29.91,South,170,0.0,0.0,92,0.00,CLR,,0.00,WeatherDisplay:10.37,2013-07-13 09:05:00,
2013-07-13 02:10:00,53.5,51.2,29.91,South,172,0.0,0.0,92,0.00,CLR,,0.00,WeatherDisplay:10.37,2013-07-13 09:10:00,
2013-07-13 02:15:00,53.5,51.2,29.91,South,176,1.2,0.0,92,0.00,CLR,,0.00,WeatherDisplay:10.37,2013-07-13 09:15:00,
2013-07-13 02:20:00,53.4,51.1,29.91,WSW,242,1.2,1.2,92,0.00,CLR,,0.00,WeatherDisplay:10.37,2013-07-13 09:20:00,
2013-07-13 02:25:00,53.4,51.1,29.90,SW,236,1.2,1.2,92,0.00,CLR,,0.00,WeatherDisplay:10.37,2013-07-13 09:25:00,
2013-07-13 02:30:00,53.4,51.1,29.91,SW,229,2.3,2.3,92,0.00,CLR,,0.00,WeatherDisplay:10.37,2013-07-13 09:30:00,
2013-07-13 02:35:00,53.4,51.1,29.91,SW,222,1.2,1.2,92,0.00,CLR,,0.00,WeatherDisplay:10.37,2013-07-13 09:35:00,
2013-07-13 02:40:00,53.4,51.1,29.91,SW,222,1.2,0.0,92,0.00,CLR,,0.00,WeatherDisplay:10.37,2013-07-13 09:40:00,
2013-07-13 02:45:00,53.3,51.0,29.91,SW,222,0.0,0.0,92,0.00,CLR,,0.00,WeatherDisplay:10.37,2013-07-13 09:45:00,
2013-07-13 02:50:00,52.8,50.2,29.91,SW,222,0.0,0.0,91,0.00,CLR,,0.00,WeatherDisplay:10.37,2013-07-13 09:50:00,
2013-07-13 02:55:00,51.9,49.4,29.91,SW,221,1.2,1.2,91,0.00,CLR,,0.00,WeatherDisplay:10.37,2013-07-13 09:55:00,
2013-07-13 03:00:00,51.8,49.5,29.91,SW,221,0.0,0.0,92,0.00,CLR,,0.00,WeatherDisplay:10.37,2013-07-13 10:00:00,
2013-07-13 03:05:00,51.7,49.5,29.91,SW,221,0.0,0.0,92,0.00,CLR,,0.00,WeatherDisplay:10.37,2013-07-13 10:05:00,
2013-07-13 03:10:00,51.6,49.4,29.91,SW,221,0.0,0.0,92,0.00,CLR,,0.00,WeatherDisplay:10.37,2013-07-13 10:10:00,
2013-07-13 03:15:00,51.4,49.2,29.91,SW,221,0.0,0.0,92,0.00,CLR,,0.00,WeatherDisplay:10.37,2013-07-13 10:15:00,
2013-07-13 03:20:00,51.0,48.8,29.91,SW,231,0.0,0.0,92,0.00,CLR,,0.00,WeatherDisplay:10.37,2013-07-13 10:20:00,
2013-07-13 03:25:00,51.1,49.1,29.91,SW,236,0.0,0.0,93,0.00,CLR,,0.00,WeatherDisplay:10.37,2013-07-13 10:25:00,
2013-07-13 03:30:00,50.9,48.7,29.91,SW,236,0.0,0.0,92,0.00,CLR,,0.00,WeatherDisplay:10.37,2013-07-13 10:30:00,
2013-07-13 03:35:00,50.7,48.7,29.91,SW,236,0.0,0.0,93,0.00,CLR,,0.00,WeatherDisplay:10.37,2013-07-13 10:35:00,
2013-07-13 03:40:00,50.5,48.6,29.91,SW,236,0.0,0.0,93,0.00,CLR,,0.00,WeatherDisplay:10.37,2013-07-13 10:40:00,
2013-07-13 03:45:00,50.7,48.7,29.91,SW,236,0.0,0.0,93,0.00,CLR,,0.00,WeatherDisplay:10.37,2013-07-13 10:45:00,
2013-07-13 03:50:00,50.6,48.7,29.91,SW,236,0.0,0.0,93,0.00,CLR,,0.00,WeatherDisplay:10.37,2013-07-13 10:50:00,
2013-07-13 03:55:00,50.6,48.7,29.91,SW,236,0.0,0.0,93,0.00,CLR,,0.00,WeatherDisplay:10.37,2013-07-13 10:55:00,
2013-07-13 04:00:00,50.4,48.5,29.91,WSW,237,0.0,0.0,93,0.00,CLR,,0.00,WeatherDisplay:10.37,2013-07-13 11:00:00,
2013-07-13 04:05:00,50.1,48.2,29.92,SW,236,0.0,0.0,93,0.00,CLR,,0.00,WeatherDisplay:10.37,2013-07-13 11:05:00,
2013-07-13 04:10:00,50.1,48.2,29.91,SW,236,0.0,0.0,93,0.00,CLR,,0.00,WeatherDisplay:10.37,2013-07-13 11:10:00,
2013-07-13 04:15:00,50.2,48.3,29.91,SW,236,0.0,0.0,93,0.00,CLR,,0.00,WeatherDisplay:10.37,2013-07-13 11:15:00,
2013-07-13 04:20:00,50.2,48.3,29.91,SW,236,0.0,0.0,93,0.00,CLR,,0.00,WeatherDisplay:10.37,2013-07-13 11:20:00,
2013-07-13 04:25:00,50.3,48.4,29.91,SW,236,0.0,0.0,93,0.00,CLR,,0.00,WeatherDisplay:10.37,2013-07-13 11:25:00,
2013-07-13 04:30:00,50.4,48.5,29.91,SW,236,0.0,0.0,93,0.00,CLR,,0.00,WeatherDisplay:10.37,2013-07-13 11:30:00,
2013-07-13 04:35:00,50.3,48.4,29.91,SW,236,0.0,0.0,93,0.00,CLR,,0.00,WeatherDisplay:10.37,2013-07-13 11:35:00,
2013-07-13 04:40:00,50.3,48.6,29.91,SW,236,0.0,0.0,94,0.00,CLR,,0.00,WeatherDisplay:10.37,2013-07-13 11:40:00,
2013-07-13 04:45:00,50.2,48.3,29.91,SW,236,0.0,0.0,93,0.00,CLR,,0.00,WeatherDisplay:10.37,2013-07-13 11:45:00,
2013-07-13 04:50:00,50.3,48.6,29.91,SW,236,0.0,0.0,94,0.00,CLR,,0.00,WeatherDisplay:10.37,2013-07-13 11:50:00,
2013-07-13 04:55:00,50.2,48.5,29.91,SW,236,0.0,0.0,94,0.00,CLR,,0.00,WeatherDisplay:10.37,2013-07-13 11:55:00,
2013-07-13 05:00:00,50.0,48.3,29.91,SW,236,0.0,0.0,94,0.00,CLR,,0.00,WeatherDisplay:10.37,2013-07-13 12:00:00,
2013-07-13 05:05:00,50.1,48.4,29.92,SW,236,0.0,0.0,94,0.00,CLR,,0.00,WeatherDisplay:10.37,2013-07-13 12:05:00,
2013-07-13 05:10:00,49.1,47.2,29.92,SW,236,0.0,0.0,93,0.00,CLR,,0.00,WeatherDisplay:10.37,2013-07-13 12:10:00,
2013-07-13 05:15:00,48.7,46.8,29.92,SW,236,0.0,0.0,93,0.00,CLR,,0.00,WeatherDisplay:10.37,2013-07-13 12:15:00,
2013-07-13 05:20:00,48.8,47.2,29.92,SW,236,0.0,0.0,94,0.00,CLR,,0.00,WeatherDisplay:10.37,2013-07-13 12:20:00,
2013-07-13 05:25:00,48.7,47.1,29.92,SW,236,0.0,0.0,94,0.00,CLR,,0.00,WeatherDisplay:10.37,2013-07-13 12:25:00,
2013-07-13 05:30:00,49.0,47.3,29.92,SW,236,0.0,0.0,94,0.00,CLR,,0.00,WeatherDisplay:10.37,2013-07-13 12:30:00,
2013-07-13 05:35:00,48.9,47.2,29.92,SW,236,0.0,0.0,94,0.00,CLR,,0.00,WeatherDisplay:10.37,2013-07-13 12:35:00,
2013-07-13 05:40:00,48.7,47.1,29.93,SW,236,0.0,0.0,94,0.00,CLR,,0.00,WeatherDisplay:10.37,2013-07-13 12:40:00,
2013-07-13 05:45:00,48.7,47.1,29.93,WSW,237,0.0,0.0,94,0.00,CLR,,0.00,WeatherDisplay:10.37,2013-07-13 12:45:00,
2013-07-13 05:50:00,48.5,46.9,29.93,SW,236,0.0,0.0,94,0.00,CLR,,0.00,WeatherDisplay:10.37,2013-07-13 12:50:00,
2013-07-13 05:55:00,48.3,46.7,29.93,SW,236,0.0,0.0,94,0.00,CLR,,0.00,WeatherDisplay:10.37,2013-07-13 12:55:00,
2013-07-13 06:00:00,48.2,46.6,29.93,SW,236,0.0,0.0,94,0.00,CLR,,0.00,WeatherDisplay:10.37,2013-07-13 13:00:00,
2013-07-13 06:05:00,48.3,46.7,29.93,SW,236,0.0,0.0,94,0.00,CLR,,0.00,WeatherDisplay:10.37,2013-07-13 13:05:00,
2013-07-13 06:10:00,48.3,46.7,29.93,SW,236,0.0,0.0,94,0.00,CLR,,0.00,WeatherDisplay:10.37,2013-07-13 13:10:00,
2013-07-13 06:15:00,48.6,47.0,29.93,SW,236,0.0,0.0,94,0.00,CLR,,0.00,WeatherDisplay:10.37,2013-07-13 13:15:00,
2013-07-13 06:20:00,48.6,47.0,29.93,SW,236,0.0,0.0,94,0.00,CLR,,0.00,WeatherDisplay:10.37,2013-07-13 13:20:00,
2013-07-13 06:25:00,48.5,46.9,29.93,SW,236,0.0,0.0,94,0.00,CLR,,0.00,WeatherDisplay:10.37,2013-07-13 13:25:00,
2013-07-13 06:30:00,48.1,46.5,29.94,SW,236,0.0,0.0,94,0.00,CLR,,0.00,WeatherDisplay:10.37,2013-07-13 13:30:00,
2013-07-13 06:35:00,48.3,46.7,29.94,SW,236,0.0,0.0,94,0.00,CLR,,0.00,WeatherDisplay:10.37,2013-07-13 13:35:00,
2013-07-13 06:40:00,48.7,47.1,29.94,SW,236,0.0,0.0,94,0.00,CLR,,0.00,WeatherDisplay:10.37,2013-07-13 13:40:00,
2013-07-13 06:45:00,49.1,47.4,29.94,SW,236,0.0,0.0,94,0.00,CLR,,0.00,WeatherDisplay:10.37,2013-07-13 13:45:00,
2013-07-13 06:50:00,49.4,47.7,29.94,WSW,237,0.0,0.0,94,0.00,CLR,,0.00,WeatherDisplay:10.37,2013-07-13 13:50:00,
2013-07-13 06:55:00,49.8,48.1,29.94,SW,236,0.0,0.0,94,0.00,CLR,,0.00,WeatherDisplay:10.37,2013-07-13 13:55:00,
2013-07-13 07:01:00,50.0,48.3,29.95,ENE,71,0.0,0.0,94,0.00,CLR,,0.00,WeatherDisplay:10.37,2013-07-13 14:01:00,
2013-07-13 07:06:00,50.2,48.5,29.95,ENE,71,0.0,0.0,94,0.00,CLR,,0.00,WeatherDisplay:10.37,2013-07-13 14:06:00,
2013-07-13 07:11:00,50.6,48.9,29.95,ENE,71,0.0,0.0,94,0.00,CLR,,0.00,WeatherDisplay:10.37,2013-07-13 14:11:00,
2013-07-13 07:16:00,51.0,49.3,29.95,ENE,71,0.0,0.0,94,0.00,CLR,,0.00,WeatherDisplay:10.37,2013-07-13 14:16:00,
2013-07-13 07:21:00,51.3,49.6,29.95,ENE,71,1.2,1.2,94,0.00,CLR,,0.00,WeatherDisplay:10.37,2013-07-13 14:21:00,
2013-07-13 07:26:00,51.7,50.0,29.95,ENE,71,1.2,1.2,94,0.00,CLR,,0.00,WeatherDisplay:10.37,2013-07-13 14:26:00,
2013-07-13 07:31:00,52.0,50.3,29.95,ENE,71,0.0,0.0,94,0.00,CLR,,0.00,WeatherDisplay:10.37,2013-07-13 14:31:00,
2013-07-13 07:36:00,52.4,50.7,29.95,ENE,71,0.0,0.0,94,0.00,CLR,,0.00,WeatherDisplay:10.37,2013-07-13 14:36:00,
2013-07-13 07:41:00,52.9,51.2,29.95,ENE,71,0.0,0.0,94,0.00,CLR,,0.00,WeatherDisplay:10.37,2013-07-13 14:41:00,
2013-07-13 07:46:00,53.4,51.7,29.96,ENE,71,0.0,0.0,94,0.00,CLR,,0.00,WeatherDisplay:10.37,2013-07-13 14:46:00,
2013-07-13 07:51:00,53.8,52.1,29.96,ENE,71,0.0,0.0,94,0.00,CLR,,0.00,WeatherDisplay:10.37,2013-07-13 14:51:00,
2013-07-13 07:56:00,54.2,52.5,29.96,SSE,148,0.0,0.0,94,0.00,CLR,,0.00,WeatherDisplay:10.37,2013-07-13 14:56:00,
2013-07-13 08:01:00,54.6,52.9,29.96,SSE,148,0.0,0.0,94,0.00,CLR,,0.00,WeatherDisplay:10.37,2013-07-13 15:01:00,
2013-07-13 08:06:00,55.1,53.4,29.96,SSE,149,1.2,1.2,94,0.00,CLR,,0.00,WeatherDisplay:10.37,2013-07-13 15:06:00,
2013-07-13 08:11:00,55.1,53.1,29.96,SSW,211,3.5,3.5,93,0.00,CLR,,0.00,WeatherDisplay:10.37,2013-07-13 15:11:00,
2013-07-13 08:16:00,55.4,53.4,29.97,SSE,155,0.0,0.0,93,0.00,CLR,,0.00,WeatherDisplay:10.37,2013-07-13 15:16:00,
2013-07-13 08:21:00,55.9,53.6,29.97,North,11,3.5,3.5,92,0.00,CLR,,0.00,WeatherDisplay:10.37,2013-07-13 15:21:00,
2013-07-13 08:26:00,56.3,54.0,29.97,East,82,2.3,2.3,92,0.00,CLR,,0.00,WeatherDisplay:10.37,2013-07-13 15:26:00,
2013-07-13 08:31:00,56.9,54.3,29.97,SE,127,2.3,2.3,91,0.00,CLR,,0.00,WeatherDisplay:10.37,2013-07-13 15:31:00,
2013-07-13 08:36:00,57.9,55.0,29.97,ESE,108,2.3,2.3,90,0.00,CLR,,0.00,WeatherDisplay:10.37,2013-07-13 15:36:00,
2013-07-13 08:41:00,58.8,54.9,29.97,NNW,336,1.2,1.2,87,0.00,CLR,,0.00,WeatherDisplay:10.37,2013-07-13 15:41:00,
2013-07-13 08:46:00,59.5,55.3,29.97,South,180,4.0,4.0,86,0.00,CLR,,0.00,WeatherDisplay:10.37,2013-07-13 15:46:00,
2013-07-13 08:51:00,59.3,54.5,29.97,WSW,253,3.5,3.5,84,0.00,CLR,,0.00,WeatherDisplay:10.37,2013-07-13 15:51:00,
2013-07-13 08:56:00,59.1,54.6,29.97,SSE,166,3.5,3.5,85,0.00,CLR,,0.00,WeatherDisplay:10.37,2013-07-13 15:56:00,
2013-07-13 09:01:00,59.4,54.6,29.97,SE,141,1.2,1.2,84,0.00,CLR,,0.00,WeatherDisplay:10.37,2013-07-13 16:01:00,
2013-07-13 09:06:00,59.7,54.9,29.97,WSW,246,2.3,2.3,84,0.00,CLR,,0.00,WeatherDisplay:10.37,2013-07-13 16:06:00,
2013-07-13 09:11:00,59.9,55.1,29.97,SSW,201,2.3,2.3,84,0.00,CLR,,0.00,WeatherDisplay:10.37,2013-07-13 16:11:00,
2013-07-13 09:16:00,60.0,54.8,29.97,WSW,248,3.5,3.5,83,0.00,CLR,,0.00,WeatherDisplay:10.37,2013-07-13 16:16:00,
2013-07-13 09:21:00,60.1,54.9,29.96,South,190,1.2,1.2,83,0.00,CLR,,0.00,WeatherDisplay:10.37,2013-07-13 16:21:00,
2013-07-13 09:26:00,60.5,55.0,29.96,SSW,205,2.3,2.3,82,0.00,CLR,,0.00,WeatherDisplay:10.37,2013-07-13 16:26:00,
2013-07-13 09:31:00,60.8,55.3,29.96,NE,53,2.3,2.3,82,0.00,CLR,,0.00,WeatherDisplay:10.37,2013-07-13 16:31:00,
2013-07-13 09:36:00,61.4,55.5,29.95,WSW,240,3.5,3.5,81,0.00,CLR,,0.00,WeatherDisplay:10.37,2013-07-13 16:36:00,
2013-07-13 09:41:00,61.9,55.7,29.95,SW,236,2.3,2.3,80,0.00,CLR,,0.00,WeatherDisplay:10.37,2013-07-13 16:41:00,
2013-07-13 09:46:00,62.3,55.7,29.95,South,169,1.2,1.2,79,0.00,CLR,,0.00,WeatherDisplay:10.37,2013-07-13 16:46:00,
2013-07-13 09:51:00,62.6,55.3,29.95,SW,225,3.5,3.5,77,0.00,CLR,,0.00,WeatherDisplay:10.37,2013-07-13 16:51:00,
2013-07-13 09:56:00,63.2,55.9,29.95,WSW,246,2.3,2.3,77,0.00,CLR,,0.00,WeatherDisplay:10.37,2013-07-13 16:56:00,
2013-07-13 10:01:00,63.8,55.7,29.95,WSW,250,4.0,4.0,75,0.00,CLR,,0.00,WeatherDisplay:10.37,2013-07-13 17:01:00,
2013-07-13 10:06:00,64.1,56.4,29.95,SSE,155,1.2,1.2,76,0.00,CLR,,0.00,WeatherDisplay:10.37,2013-07-13 17:06:00,
2013-07-13 10:11:00,64.8,55.9,29.95,SSW,195,3.5,3.5,73,0.00,CLR,,0.00,WeatherDisplay:10.37,2013-07-13 17:11:00,
2013-07-13 10:16:00,65.3,56.0,29.95,SW,232,3.5,3.5,72,0.00,CLR,,0.00,WeatherDisplay:10.37,2013-07-13 17:16:00,
2013-07-13 10:21:00,65.8,55.7,29.95,SSE,166,3.5,3.5,70,0.00,CLR,,0.00,WeatherDisplay:10.37,2013-07-13 17:21:00,
2013-07-13 10:26:00,66.2,56.1,29.95,ESE,108,3.5,3.5,70,0.00,CLR,,0.00,WeatherDisplay:10.37,2013-07-13 17:26:00,
2013-07-13 10:31:00,66.8,56.7,29.95,SSE,162,6.0,6.0,70,0.00,CLR,,0.00,WeatherDisplay:10.37,2013-07-13 17:31:00,
2013-07-13 10:36:00,67.3,56.8,29.95,SSE,159,5.0,5.0,69,0.00,CLR,,0.00,WeatherDisplay:10.37,2013-07-13 17:36:00,
2013-07-13 10:41:00,67.8,56.9,29.95,SSW,203,5.8,5.8,68,0.00,CLR,,0.00,WeatherDisplay:10.37,2013-07-13 17:41:00,
2013-07-13 10:46:00,68.3,56.9,29.95,SE,124,3.5,3.5,67,0.00,CLR,,0.00,WeatherDisplay:10.37,2013-07-13 17:46:00,
2013-07-13 10:51:00,68.7,57.3,29.95,SE,135,4.6,4.6,67,0.00,CLR,,0.00,WeatherDisplay:10.37,2013-07-13 17:51:00,
2013-07-13 10:56:00,69.4,58.0,29.95,SE,124,3.5,3.5,67,0.00,CLR,,0.00,WeatherDisplay:10.37,2013-07-13 17:56:00,
2013-07-13 11:01:00,70.1,57.8,29.95,SE,138,5.8,5.8,65,0.00,CLR,,0.00,WeatherDisplay:10.37,2013-07-13 18:01:00,
2013-07-13 11:06:00,70.4,58.1,29.95,SW,218,3.5,3.5,65,0.00,CLR,,0.00,WeatherDisplay:10.37,2013-07-13 18:06:00,
2013-07-13 11:11:00,70.7,57.9,29.95,SSE,149,3.5,3.5,64,0.00,CLR,,0.00,WeatherDisplay:10.37,2013-07-13 18:11:00,
2013-07-13 11:16:00,70.7,57.5,29.95,South,176,6.9,6.9,63,0.00,CLR,,0.00,WeatherDisplay:10.37,2013-07-13 18:16:00,
2013-07-13 11:21:00,70.9,56.8,29.95,SSE,153,5.8,5.8,61,0.00,CLR,,0.00,WeatherDisplay:10.37,2013-07-13 18:21:00,
2013-07-13 11:26:00,71.5,56.4,29.95,SSE,150,8.0,8.0,59,0.00,CLR,,0.00,WeatherDisplay:10.37,2013-07-13 18:26:00,
2013-07-13 11:31:00,71.5,56.4,29.95,SE,138,8.1,8.1,59,0.00,CLR,,0.00,WeatherDisplay:10.37,2013-07-13 18:31:00,
2013-07-13 11:36:00,72.0,56.4,29.95,SSE,162,8.1,8.1,58,0.00,CLR,,0.00,WeatherDisplay:10.37,2013-07-13 18:36:00,
2013-07-13 11:41:00,72.8,56.7,29.95,SE,128,5.8,5.8,57,0.00,CLR,,0.00,WeatherDisplay:10.37,2013-07-13 18:41:00,
2013-07-13 11:46:00,73.2,56.1,29.95,South,171,11.5,11.5,55,0.00,CLR,,0.00,WeatherDisplay:10.37,2013-07-13 18:46:00,
2013-07-13 11:51:00,73.4,56.2,29.95,SSE,163,3.5,3.5,55,0.00,CLR,,0.00,WeatherDisplay:10.37,2013-07-13 18:51:00,
2013-07-13 11:56:00,74.3,56.6,29.95,SSE,166,3.5,3.5,54,0.00,CLR,,0.00,WeatherDisplay:10.37,2013-07-13 18:56:00,
2013-07-13 12:01:00,75.0,56.2,29.95,South,186,7.0,7.0,52,0.00,CLR,,0.00,WeatherDisplay:10.37,2013-07-13 19:01:00,
2013-07-13 12:06:00,75.1,56.3,29.95,SSE,158,4.6,4.6,52,0.00,CLR,,0.00,WeatherDisplay:10.37,2013-07-13 19:06:00,
2013-07-13 12:11:00,75.0,55.6,29.95,SSE,154,10.4,10.4,51,0.00,CLR,,0.00,WeatherDisplay:10.37,2013-07-13 19:11:00,
2013-07-13 12:16:00,75.6,55.6,29.95,SE,124,10.4,10.4,50,0.00,CLR,,0.00,WeatherDisplay:10.37,2013-07-13 19:16:00,
2013-07-13 12:21:00,75.6,56.2,29.95,South,169,9.2,9.2,51,0.00,CLR,,0.00,WeatherDisplay:10.37,2013-07-13 19:21:00,
2013-07-13 12:26:00,76.0,56.6,29.95,ESE,121,3.0,3.0,51,0.00,CLR,,0.00,WeatherDisplay:10.37,2013-07-13 19:26:00,
2013-07-13 12:31:00,76.7,55.5,29.94,SSE,150,10.4,10.4,48,0.00,CLR,,0.00,WeatherDisplay:10.37,2013-07-13 19:31:00,
2013-07-13 12:36:00,77.2,57.1,29.94,SSE,152,4.6,4.6,50,0.00,CLR,,0.00,WeatherDisplay:10.37,2013-07-13 19:36:00,
2013-07-13 12:41:00,77.6,57.5,29.94,ESE,107,9.2,9.2,50,0.00,CLR,,0.00,WeatherDisplay:10.37,2013-07-13 19:41:00,
2013-07-13 12:46:00,77.2,57.1,29.94,SSE,162,5.8,5.8,50,0.00,CLR,,0.00,WeatherDisplay:10.37,2013-07-13 19:46:00,
2013-07-13 12:51:00,77.5,56.8,29.94,SSE,156,3.5,3.5,49,0.00,CLR,,0.00,WeatherDisplay:10.37,2013-07-13 19:51:00,
2013-07-13 12:56:00,77.8,56.5,29.94,ESE,105,3.5,3.5,48,0.00,CLR,,0.00,WeatherDisplay:10.37,2013-07-13 19:56:00,
2013-07-13 13:01:00,78.3,57.6,29.94,ESE,119,5.8,5.8,49,0.00,CLR,,0.00,WeatherDisplay:10.37,2013-07-13 20:01:00,
2013-07-13 13:06:00,78.8,56.9,29.94,SE,139,3.5,3.5,47,0.00,CLR,,0.00,WeatherDisplay:10.37,2013-07-13 20:06:00,
2013-07-13 13:11:00,79.0,57.0,29.94,SSE,165,12.0,12.0,47,0.00,CLR,,0.00,WeatherDisplay:10.37,2013-07-13 20:11:00,
2013-07-13 13:16:00,79.0,56.5,29.93,SE,135,3.5,3.5,46,0.00,CLR,,0.00,WeatherDisplay:10.37,2013-07-13 20:16:00,
2013-07-13 13:21:00,79.7,57.1,29.93,SE,143,3.5,3.5,46,0.00,CLR,,0.00,WeatherDisplay:10.37,2013-07-13 20:21:00,
2013-07-13 13:26:00,80.2,57.5,29.93,East,96,4.6,4.6,46,0.00,CLR,,0.00,WeatherDisplay:10.37,2013-07-13 20:26:00,
2013-07-13 13:31:00,80.6,56.7,29.93,SE,143,11.5,11.5,44,0.00,CLR,,0.00,WeatherDisplay:10.37,2013-07-13 20:31:00,
2013-07-13 13:36:00,80.7,57.4,29.93,SSW,204,5.0,5.0,45,0.00,CLR,,0.00,WeatherDisplay:10.37,2013-07-13 20:36:00,
2013-07-13 13:41:00,81.2,58.5,29.92,ESE,115,4.0,4.0,46,0.00,CLR,,0.00,WeatherDisplay:10.37,2013-07-13 20:41:00,
2013-07-13 13:46:00,81.0,57.7,29.92,SE,138,8.1,8.1,45,0.00,CLR,,0.00,WeatherDisplay:10.37,2013-07-13 20:46:00,
2013-07-13 13:51:00,80.9,56.9,29.92,ESE,110,6.9,6.9,44,0.00,CLR,,0.00,WeatherDisplay:10.37,2013-07-13 20:51:00,
2013-07-13 13:56:00,81.1,57.1,29.92,ESE,116,8.1,8.1,44,0.00,CLR,,0.00,WeatherDisplay:10.37,2013-07-13 20:56:00,
2013-07-13 14:01:00,81.4,57.4,29.92,SE,135,6.9,6.9,44,0.00,CLR,,0.00,WeatherDisplay:10.37,2013-07-13 21:01:00,
2013-07-13 14:06:00,81.9,57.8,29.92,South,177,4.6,4.6,44,0.00,CLR,,0.00,WeatherDisplay:10.37,2013-07-13 21:06:00,
2013-07-13 14:11:00,82.3,58.2,29.92,SE,134,4.6,4.6,44,0.00,CLR,,0.00,WeatherDisplay:10.37,2013-07-13 21:11:00,
2013-07-13 14:16:00,82.4,58.3,29.92,ESE,104,5.0,5.0,44,0.00,CLR,,0.00,WeatherDisplay:10.37,2013-07-13 21:16:00,
2013-07-13 14:21:00,82.5,58.4,29.91,SE,132,4.6,4.6,44,0.00,CLR,,0.00,WeatherDisplay:10.37,2013-07-13 21:21:00,
2013-07-13 14:26:00,83.1,58.3,29.91,South,171,7.0,7.0,43,0.00,CLR,,0.00,WeatherDisplay:10.37,2013-07-13 21:26:00,
2013-07-13 14:31:00,83.6,58.7,29.91,ESE,122,6.9,6.9,43,0.00,CLR,,0.00,WeatherDisplay:10.37,2013-07-13 21:31:00,
2013-07-13 14:36:00,84.5,58.9,29.91,ESE,122,3.5,3.5,42,0.00,CLR,,0.00,WeatherDisplay:10.37,2013-07-13 21:36:00,
2013-07-13 14:41:00,84.9,58.6,29.91,SSE,159,8.1,8.1,41,0.00,CLR,,0.00,WeatherDisplay:10.37,2013-07-13 21:41:00,
2013-07-13 14:46:00,85.0,58.7,29.91,SSE,154,5.0,5.0,41,0.00,CLR,,0.00,WeatherDisplay:10.37,2013-07-13 21:46:00,
2013-07-13 14:51:00,84.9,57.9,29.90,SE,134,6.9,6.9,40,0.00,CLR,,0.00,WeatherDisplay:10.37,2013-07-13 21:51:00,
2013-07-13 14:56:00,85.2,58.8,29.90,SSE,152,10.4,10.4,41,0.00,CLR,,0.00,WeatherDisplay:10.37,2013-07-13 21:56:00,
2013-07-13 15:01:00,85.1,58.8,29.90,South,186,9.2,9.2,41,0.00,CLR,,0.00,WeatherDisplay:10.37,2013-07-13 22:01:00,
2013-07-13 15:06:00,84.8,58.5,29.90,South,179,10.4,10.4,41,0.00,CLR,,0.00,WeatherDisplay:10.37,2013-07-13 22:06:00,
2013-07-13 15:11:00,84.4,58.8,29.90,SE,127,7.0,7.0,42,0.00,CLR,,0.00,WeatherDisplay:10.37,2013-07-13 22:11:00,
2013-07-13 15:16:00,84.5,58.9,29.90,SE,137,6.9,6.9,42,0.00,CLR,,0.00,WeatherDisplay:10.37,2013-07-13 22:16:00,
2013-07-13 15:21:00,84.8,59.2,29.90,South,170,13.0,13.0,42,0.00,CLR,,0.00,WeatherDisplay:10.37,2013-07-13 22:21:00,
2013-07-13 15:26:00,84.7,59.7,29.89,SSW,193,11.5,11.5,43,0.00,CLR,,0.00,WeatherDisplay:10.37,2013-07-13 22:26:00,
2013-07-13 15:31:00,84.9,59.9,29.89,SSE,157,9.2,9.2,43,0.00,CLR,,0.00,WeatherDisplay:10.37,2013-07-13 22:31:00,
2013-07-13 15:36:00,85.0,59.3,29.89,SE,126,5.8,5.8,42,0.00,CLR,,0.00,WeatherDisplay:10.37,2013-07-13 22:36:00,
2013-07-13 15:41:00,84.8,59.8,29.89,South,184,9.2,9.2,43,0.00,CLR,,0.00,WeatherDisplay:10.37,2013-07-13 22:41:00,
2013-07-13 15:46:00,84.9,60.6,29.89,SE,141,12.7,12.7,44,0.00,CLR,,0.00,WeatherDisplay:10.37,2013-07-13 22:46:00,
2013-07-13 15:51:00,84.9,61.2,29.89,ESE,108,2.3,2.3,45,0.00,CLR,,0.00,WeatherDisplay:10.37,2013-07-13 22:51:00,
2013-07-13 15:56:00,85.3,60.9,29.88,SE,128,6.9,6.9,44,0.00,CLR,,0.00,WeatherDisplay:10.37,2013-07-13 22:56:00,
2013-07-13 16:01:00,85.3,60.9,29.88,SSE,162,10.4,10.4,44,0.00,CLR,,0.00,WeatherDisplay:10.37,2013-07-13 23:01:00,
2013-07-13 16:06:00,85.0,60.6,29.88,SSE,149,3.5,3.5,44,0.00,CLR,,0.00,WeatherDisplay:10.37,2013-07-13 23:06:00,
2013-07-13 16:11:00,84.5,60.2,29.88,ESE,117,6.9,6.9,44,0.00,CLR,,0.00,WeatherDisplay:10.37,2013-07-13 23:11:00,
2013-07-13 16:16:00,84.2,59.9,29.88,SE,132,9.2,9.2,44,0.00,CLR,,0.00,WeatherDisplay:10.37,2013-07-13 23:16:00,
2013-07-13 16:21:00,83.8,60.2,29.88,ESE,118,4.6,4.6,45,0.00,CLR,,0.00,WeatherDisplay:10.37,2013-07-13 23:21:00,
2013-07-13 16:26:00,83.6,60.6,29.88,SSE,158,10.0,10.0,46,0.00,CLR,,0.00,WeatherDisplay:10.37,2013-07-13 23:26:00,
2013-07-13 16:31:00,84.1,60.5,29.88,SE,131,11.5,11.5,45,0.00,CLR,,0.00,WeatherDisplay:10.37,2013-07-13 23:31:00,
2013-07-13 16:36:00,83.7,60.1,29.88,SE,125,6.0,6.0,45,0.00,CLR,,0.00,WeatherDisplay:10.37,2013-07-13 23:36:00,
2013-07-13 16:41:00,83.3,59.7,29.88,SSE,161,9.2,9.2,45,0.00,CLR,,0.00,WeatherDisplay:10.37,2013-07-13 23:41:00,
2013-07-13 16:46:00,82.8,59.9,29.88,SE,130,6.9,6.9,46,0.00,CLR,,0.00,WeatherDisplay:10.37,2013-07-13 23:46:00,
2013-07-13 16:51:00,82.4,58.9,29.87,SSE,154,4.6,4.6,45,0.00,CLR,,0.00,WeatherDisplay:10.37,2013-07-13 23:51:00,
2013-07-13 16:56:00,82.2,60.0,29.88,SE,134,3.5,4.8,47,0.00,CLR,,0.00,WeatherDisplay:10.37,2013-07-13 23:56:00,
2013-07-13 17:01:00,82.1,59.9,29.87,SE,126,5.8,5.8,47,0.00,CLR,,0.00,WeatherDisplay:10.37,2013-07-14 00:01:00,
2013-07-13 17:06:00,81.8,59.6,29.87,ESE,104,4.6,4.6,47,0.00,CLR,,0.00,WeatherDisplay:10.37,2013-07-14 00:06:00,
2013-07-13 17:07:00,81.8,59.6,29.87,SE,129,3.5,3.5,47,0.00,CLR,,0.00,WeatherDisplay:10.37,2013-07-14 00:07:00,
2013-07-13 17:12:00,81.8,59.6,29.87,SE,128,3.5,3.5,47,0.00,CLR,,0.00,WeatherDisplay:10.37,2013-07-14 00:12:00,
2013-07-13 17:17:00,81.8,59.6,29.87,SE,146,6.9,6.9,47,0.00,CLR,,0.00,WeatherDisplay:10.37,2013-07-14 00:17:00,
2013-07-13 17:22:00,82.0,59.8,29.87,ESE,113,3.0,3.0,47,0.00,CLR,,0.00,WeatherDisplay:10.37,2013-07-14 00:22:00,
2013-07-13 17:27:00,81.7,58.9,29.87,SSE,155,11.5,11.5,46,0.00,CLR,,0.00,WeatherDisplay:10.37,2013-07-14 00:27:00,
2013-07-13 17:32:00,81.7,58.9,29.87,SE,138,8.1,8.1,46,0.00,CLR,,0.00,WeatherDisplay:10.37,2013-07-14 00:32:00,
2013-07-13 17:37:00,81.4,59.2,29.87,SSE,156,11.5,11.5,47,0.00,CLR,,0.00,WeatherDisplay:10.37,2013-07-14 00:37:00,
2013-07-13 17:42:00,81.4,59.2,29.87,ESE,116,6.9,6.9,47,0.00,CLR,,0.00,WeatherDisplay:10.37,2013-07-14 00:42:00,
2013-07-13 17:47:00,81.0,58.9,29.87,SSE,156,11.5,11.5,47,0.00,CLR,,0.00,WeatherDisplay:10.37,2013-07-14 00:47:00,
2013-07-13 17:52:00,81.0,59.5,29.87,ESE,119,3.5,3.5,48,0.00,CLR,,0.00,WeatherDisplay:10.37,2013-07-14 00:52:00,
2013-07-13 17:57:00,80.6,59.1,29.87,SSE,150,6.9,6.9,48,0.00,CLR,,0.00,WeatherDisplay:10.37,2013-07-14 00:57:00,
2013-07-13 18:02:00,80.3,59.4,29.87,SE,139,5.8,5.8,49,0.00,CLR,,0.00,WeatherDisplay:10.37,2013-07-14 01:02:00,
2013-07-13 18:07:00,80.5,59.6,29.87,South,186,8.1,8.1,49,0.00,CLR,,0.00,WeatherDisplay:10.37,2013-07-14 01:07:00,
2013-07-13 18:12:00,80.2,59.3,29.87,ESE,112,3.5,3.5,49,0.00,CLR,,0.00,WeatherDisplay:10.37,2013-07-14 01:12:00,
2013-07-13 18:17:00,79.7,58.3,29.87,South,173,9.2,9.2,48,0.00,CLR,,0.00,WeatherDisplay:10.37,2013-07-14 01:17:00,
2013-07-13 18:22:00,79.2,59.0,29.87,South,175,9.0,9.0,50,0.00,CLR,,0.00,WeatherDisplay:10.37,2013-07-14 01:22:00,
2013-07-13 18:27:00,79.2,58.4,29.87,SE,141,5.8,5.8,49,0.00,CLR,,0.00,WeatherDisplay:10.37,2013-07-14 01:27:00,
2013-07-13 18:32:00,78.9,58.7,29.87,SE,132,5.8,5.8,50,0.00,CLR,,0.00,WeatherDisplay:10.37,2013-07-14 01:32:00,
2013-07-13 18:37:00,78.7,58.5,29.87,South,174,9.2,9.2,50,0.00,CLR,,0.00,WeatherDisplay:10.37,2013-07-14 01:37:00,
2013-07-13 18:42:00,78.4,58.2,29.87,SW,218,6.0,6.0,50,0.00,CLR,,0.00,WeatherDisplay:10.37,2013-07-14 01:42:00,
2013-07-13 18:47:00,78.0,58.4,29.87,SSE,150,6.9,6.9,51,0.00,CLR,,0.00,WeatherDisplay:10.37,2013-07-14 01:47:00,
2013-07-13 18:52:00,77.7,58.7,29.87,SSE,165,8.1,8.1,52,0.00,CLR,,0.00,WeatherDisplay:10.37,2013-07-14 01:52:00,
2013-07-13 18:57:00,77.5,58.5,29.87,South,181,9.2,9.2,52,0.00,CLR,,0.00,WeatherDisplay:10.37,2013-07-14 01:57:00,
2013-07-13 19:02:00,77.2,58.7,29.87,South,172,6.9,6.9,53,0.00,CLR,,0.00,WeatherDisplay:10.37,2013-07-14 02:02:00,
2013-07-13 19:07:00,77.1,58.6,29.87,SSE,152,3.5,3.5,53,0.00,CLR,,0.00,WeatherDisplay:10.37,2013-07-14 02:07:00,
2013-07-13 19:12:00,77.4,58.9,29.87,South,181,6.9,6.9,53,0.00,CLR,,0.00,WeatherDisplay:10.37,2013-07-14 02:12:00,
2013-07-13 19:17:00,77.5,58.5,29.87,SSW,196,5.8,5.8,52,0.00,CLR,,0.00,WeatherDisplay:10.37,2013-07-14 02:17:00,
2013-07-13 19:22:00,77.4,58.4,29.87,South,170,4.6,4.6,52,0.00,CLR,,0.00,WeatherDisplay:10.37,2013-07-14 02:22:00,
2013-07-13 19:27:00,76.9,58.5,29.87,SSE,159,3.5,3.5,53,0.00,CLR,,0.00,WeatherDisplay:10.37,2013-07-14 02:27:00,
2013-07-13 19:32:00,76.3,57.9,29.88,South,172,6.9,6.9,53,0.00,CLR,,0.00,WeatherDisplay:10.37,2013-07-14 02:32:00,
2013-07-13 19:37:00,75.9,58.1,29.88,South,173,3.5,3.5,54,0.00,CLR,,0.00,WeatherDisplay:10.37,2013-07-14 02:37:00,
2013-07-13 19:42:00,75.9,58.1,29.88,SW,233,4.0,4.0,54,0.00,CLR,,0.00,WeatherDisplay:10.37,2013-07-14 02:42:00,
2013-07-13 19:47:00,75.8,58.0,29.88,South,179,6.9,6.9,54,0.00,CLR,,0.00,WeatherDisplay:10.37,2013-07-14 02:47:00,
2013-07-13 19:52:00,75.6,58.3,29.88,SW,222,5.8,5.8,55,0.00,CLR,,0.00,WeatherDisplay:10.37,2013-07-14 02:52:00,
2013-07-13 19:57:00,75.3,58.0,29.88,SSW,210,3.5,3.5,55,0.00,CLR,,0.00,WeatherDisplay:10.37,2013-07-14 02:57:00,
2013-07-13 20:02:00,75.1,58.3,29.88,SSW,207,5.8,5.8,56,0.00,CLR,,0.00,WeatherDisplay:10.37,2013-07-14 03:02:00,
2013-07-13 20:07:00,74.5,58.3,29.88,SSE,157,6.9,6.9,57,0.00,CLR,,0.00,WeatherDisplay:10.37,2013-07-14 03:07:00,
2013-07-13 20:12:00,73.6,57.9,29.88,SSE,162,5.8,5.8,58,0.00,CLR,,0.00,WeatherDisplay:10.37,2013-07-14 03:12:00,
2013-07-13 20:17:00,72.3,57.6,29.88,SSW,204,10.4,10.4,60,0.00,CLR,,0.00,WeatherDisplay:10.37,2013-07-14 03:17:00,
2013-07-13 20:22:00,71.1,57.9,29.89,SSE,162,3.5,3.5,63,0.00,CLR,,0.00,WeatherDisplay:10.37,2013-07-14 03:22:00,
2013-07-13 20:27:00,70.4,57.6,29.89,South,172,6.9,6.9,64,0.00,CLR,,0.00,WeatherDisplay:10.37,2013-07-14 03:27:00,
2013-07-13 20:32:00,69.7,57.4,29.89,SSE,154,3.5,3.5,65,0.00,CLR,,0.00,WeatherDisplay:10.37,2013-07-14 03:32:00,
2013-07-13 20:33:00,69.7,57.4,29.89,SSE,153,3.5,3.5,65,0.00,CLR,,0.00,WeatherDisplay:10.37,2013-07-14 03:33:00,
2013-07-13 20:38:00,69.1,57.3,29.89,SSE,166,4.6,4.6,66,0.00,CLR,,0.00,WeatherDisplay:10.37,2013-07-14 03:38:00,
2013-07-13 20:43:00,68.6,57.2,29.89,SSE,167,5.8,5.8,67,0.00,CLR,,0.00,WeatherDisplay:10.37,2013-07-14 03:43:00,
2013-07-13 20:48:00,68.2,57.2,29.89,SSE,166,6.9,6.9,68,0.00,CLR,,0.00,WeatherDisplay:10.37,2013-07-14 03:48:00,
2013-07-13 20:53:00,67.8,57.7,29.89,SSW,195,6.9,6.9,70,0.00,CLR,,0.00,WeatherDisplay:10.37,2013-07-14 03:53:00,
2013-07-13 20:58:00,67.4,57.7,29.89,South,184,6.9,6.9,71,0.00,CLR,,0.00,WeatherDisplay:10.37,2013-07-14 03:58:00,
2013-07-13 21:01:00,67.2,57.5,29.89,SSE,165,4.6,4.6,71,0.00,CLR,,0.00,WeatherDisplay:10.37,2013-07-14 04:01:00,
2013-07-13 21:02:00,67.2,57.5,29.90,SE,133,8.1,8.1,71,0.00,CLR,,0.00,WeatherDisplay:10.37,2013-07-14 04:02:00,
2013-07-13 21:03:00,67.1,57.8,29.90,SSE,162,6.9,6.9,72,0.00,CLR,,0.00,WeatherDisplay:10.37,2013-07-14 04:03:00,
2013-07-13 21:06:00,66.9,57.6,29.90,SSE,167,7.0,7.0,72,0.00,CLR,,0.00,WeatherDisplay:10.37,2013-07-14 04:06:00,
2013-07-13 21:11:00,66.5,57.6,29.90,South,169,7.0,7.0,73,0.00,CLR,,0.00,WeatherDisplay:10.37,2013-07-14 04:11:00,
2013-07-13 21:16:00,66.1,57.2,29.90,SSW,200,6.9,6.9,73,0.00,CLR,,0.00,WeatherDisplay:10.37,2013-07-14 04:16:00,
2013-07-13 21:21:00,65.8,57.3,29.91,SSE,150,6.9,6.9,74,0.00,CLR,,0.00,WeatherDisplay:10.37,2013-07-14 04:21:00,
2013-07-13 21:26:00,65.4,57.3,29.91,SSW,207,6.9,6.9,75,0.00,CLR,,0.00,WeatherDisplay:10.37,2013-07-14 04:26:00,
2013-07-13 21:31:00,65.1,57.3,29.91,SSE,166,4.6,4.6,76,0.00,CLR,,0.00,WeatherDisplay:10.37,2013-07-14 04:31:00,
2013-07-13 21:36:00,64.7,57.0,29.92,SSE,167,4.6,4.6,76,0.00,CLR,,0.00,WeatherDisplay:10.37,2013-07-14 04:36:00,
2013-07-13 21:41:00,64.5,57.1,29.92,South,170,8.0,8.0,77,0.00,CLR,,0.00,WeatherDisplay:10.37,2013-07-14 04:41:00,
2013-07-13 21:46:00,64.2,56.8,29.92,South,181,6.9,6.9,77,0.00,CLR,,0.00,WeatherDisplay:10.37,2013-07-14 04:46:00,
2013-07-13 21:51:00,64.1,56.7,29.92,SSE,158,5.8,5.8,77,0.00,CLR,,0.00,WeatherDisplay:10.37,2013-07-14 04:51:00,
2013-07-13 21:56:00,63.9,56.5,29.92,SSE,165,5.8,5.8,77,0.00,CLR,,0.00,WeatherDisplay:10.37,2013-07-14 04:56:00,
2013-07-13 22:01:00,63.8,56.8,29.92,South,185,5.0,5.0,78,0.00,CLR,,0.00,WeatherDisplay:10.37,2013-07-14 05:01:00,
2013-07-13 22:06:00,63.5,56.5,29.93,SW,214,5.8,5.8,78,0.00,CLR,,0.00,WeatherDisplay:10.37,2013-07-14 05:06:00,
2013-07-13 22:11:00,63.5,56.5,29.93,SW,215,2.3,2.3,78,0.00,CLR,,0.00,WeatherDisplay:10.37,2013-07-14 05:11:00,
2013-07-13 22:16:00,63.3,56.3,29.93,SSE,163,2.3,2.3,78,0.00,CLR,,0.00,WeatherDisplay:10.37,2013-07-14 05:16:00,
2013-07-13 22:21:00,63.1,56.5,29.93,SSE,151,3.5,3.5,79,0.00,CLR,,0.00,WeatherDisplay:10.37,2013-07-14 05:21:00,
2013-07-13 22:26:00,62.8,56.2,29.93,SSW,197,2.3,2.3,79,0.00,CLR,,0.00,WeatherDisplay:10.37,2013-07-14 05:26:00,
2013-07-13 22:31:00,62.6,56.3,29.93,South,191,3.5,3.5,80,0.00,CLR,,0.00,WeatherDisplay:10.37,2013-07-14 05:31:00,
2013-07-13 22:36:00,62.3,56.4,29.93,South,186,5.8,5.8,81,0.00,CLR,,0.00,WeatherDisplay:10.37,2013-07-14 05:36:00,
2013-07-13 22:41:00,62.1,56.5,29.93,South,173,6.0,6.0,82,0.00,CLR,,0.00,WeatherDisplay:10.37,2013-07-14 05:41:00,
2013-07-13 22:46:00,62.0,56.4,29.93,SSE,165,3.5,3.5,82,0.00,CLR,,0.00,WeatherDisplay:10.37,2013-07-14 05:46:00,
2013-07-13 22:51:00,61.7,56.1,29.93,South,169,4.0,4.0,82,0.00,CLR,,0.00,WeatherDisplay:10.37,2013-07-14 05:51:00,
2013-07-13 22:56:00,61.6,56.4,29.94,South,172,2.3,2.3,83,0.00,CLR,,0.00,WeatherDisplay:10.37,2013-07-14 05:56:00,
2013-07-13 23:01:00,61.4,56.2,29.94,SSE,148,1.2,1.2,83,0.00,CLR,,0.00,WeatherDisplay:10.37,2013-07-14 06:01:00,
2013-07-13 23:06:00,61.0,55.8,29.94,SSE,159,3.5,3.5,83,0.00,CLR,,0.00,WeatherDisplay:10.37,2013-07-14 06:06:00,
2013-07-13 23:11:00,60.6,55.4,29.94,SSE,164,3.5,3.5,83,0.00,CLR,,0.00,WeatherDisplay:10.37,2013-07-14 06:11:00,
2013-07-13 23:16:00,60.2,55.3,29.94,SSE,149,3.5,3.5,84,0.00,CLR,,0.00,WeatherDisplay:10.37,2013-07-14 06:16:00,
2013-07-13 23:21:00,59.9,55.1,29.94,South,169,3.0,3.0,84,0.00,CLR,,0.00,WeatherDisplay:10.37,2013-07-14 06:21:00,
2013-07-13 23:26:00,59.7,54.9,29.94,South,172,2.3,2.3,84,0.00,CLR,,0.00,WeatherDisplay:10.37,2013-07-14 06:26:00,
2013-07-13 23:31:00,59.5,54.7,29.94,SSE,161,2.3,2.3,84,0.00,CLR,,0.00,WeatherDisplay:10.37,2013-07-14 06:31:00,
2013-07-13 23:36:00,59.3,54.5,29.94,SSE,148,3.5,3.5,84,0.00,CLR,,0.00,WeatherDisplay:10.37,2013-07-14 06:36:00,
2013-07-13 23:41:00,59.3,54.5,29.94,SSE,159,3.5,3.5,84,0.00,CLR,,0.00,WeatherDisplay:10.37,2013-07-14 06:41:00,
2013-07-13 23:46:00,59.1,54.3,29.95,SSE,163,2.3,2.3,84,0.00,CLR,,0.00,WeatherDisplay:10.37,2013-07-14 06:46:00,
2013-07-13 23:51:00,59.0,54.5,29.95,South,177,3.5,3.5,85,0.00,CLR,,0.00,WeatherDisplay:10.37,2013-07-14 06:51:00,
2013-07-13 23:56:00,58.8,54.3,29.95,SSW,195,3.5,3.5,85,0.00,CLR,,0.00,WeatherDisplay:10.37,2013-07-14 06:56:00,